Temperature
-1 -1 -1 -1 -0 -0 -1 -0 0 1 1 1 1 -0 0 1 1 1 1 2 2 2 2 2 2 2 2 3 3 3 3 3 3 3 3 3 3 3 3 3 3 4 4 4
-1 -1 -1 -1 -1 -1 -0 -0 -1 0 0 0 -0 -0 -0 -0 0 0 0 1 1 1 1 2 2 2 2 2 2 2 2 2 2 3 3 3 3 3 3 3 3 3 3 3
-1 -2 -1 -0 -1 -1 -1 -1 -1 -0 0 -1 -1 -1 -1 -1 -0 -0 0 0 1 1 1 1 1 1 1 1 1 1 2 2 2 2 2 2 2 2 2 2 2 2 2 2
-3 -2 0 1 -1 -2 -2 -2 -2 -1 -1 -1 -1 -1 -1 -1 -0 -0 0 0 0 0 0 0 0 0 0 0 0 1 1 1 1 1 1 1 1 1 1 1 1 1 1 1
-4 -3 -2 -1 -2 -3 -2 -2 -2 -2 -2 -2 -1 -2 -1 -1 -1 -0 -0 -0 -0 -0 -0 -0 -0 -0 -0 -0 -0 0 0 0 0 0 1 1 1 1 1 1 1 1 1 1
-4 -2 -0 0 -2 -2 -2 -1 -2 -2 -2 -2 -2 -2 -2 -1 -1 -1 -1 -1 -1 -1 -1 -1 -1 -1 -1 -1 -1 -1 -1 -0 -0 -0 -0 -0 0 0 -0 -0 -0 -0 -0 -0
-4 -3 -2 -2 -3 -2 -1 -0 -1 -1 -2 -2 -3 -2 -2 -2 -1 -1 -1 -1 -1 -1 -1 -1 -1 -1 -1 -1 -1 -1 -1 -1 -1 -1 -1 -1 -1 -1 -1 -1 -1 -1 -0 -1
-5 -4 -1 -3 -4 -2 -1 -1 -1 -1 -1 -2 -2 -2 -2 -2 -2 -2 -2 -2 -2 -2 -2 -2 -2 -2 -2 -2 -2 -2 -2 -2 -1 -1 -1 -1 -1 -1 -1 -1 -1 -1 -1 -1
-4 -2 -2 -2 -2 -1 -1 -1 -1 -1 -1 -1 -2 -2 -2 -2 -2 -2 -2 -2 -2 -2 -2 -2 -2 -2 -2 -2 -2 -2 -2 -2 -2 -2 -2 -2 -2 -2 -2 -2 -2 -2 -2 -2
-5 -4 -3 -2 -1 -1 -1 -1 -1 -1 -2 -2 -2 -2 -2 -3 -3 -3 -3 -3 -3 -3 -3 -3 -3 -3 -3 -3 -3 -3 -3 -2 -2 -2 -2 -2 -2 -2 -2 -2 -2 -2 -2 -2
-5 -5 -4 -2 -1 -0 -1 -1 -1 -2 -2 -2 -2 -2 -3 -3 -3 -3 -3 -3 -3 -3 -3 -3 -3 -3 -3 -3 -3 -3 -3 -3 -3 -3 -3 -3 -3 -3 -3 -3 -3 -3 -3 -3
-3 -3 -3 -2 -0 -1 -1 -1 -2 -2 -2 -2 -2 -3 -3 -3 -3 -3 -3 -4 -4 -4 -3 -3 -3 -3 -3 -4 -3 -3 -3 -3 -3 -3 -3 -3 -3 -3 -3 -3 -3 -3 -3 -3
-1 -1 -1 -1 -1 -1 -1 -2 -2 -2 -2 -2 -2 -3 -3 -3 -3 -4 -4 -4 -4 -4 -4 -4 -4 -4 -4 -4 -4 -4 -4 -4 -4 -4 -4 -3 -3 -3 -3 -3 -4 -4 -4 -4
-2 -2 -3 -2 -2 -2 -2 -2 -2 -2 -3 -3 -3 -3 -3 -4 -4 -4 -4 -4 -4 -4 -4 -4 -4 -4 -4 -4 -4 -4 -4 -4 -4 -4 -4 -4 -4 -4 -4 -4 -4 -4 -4 -4
-2 -2 -2 -2 -2 -2 -2 -3 -3 -3 -3 -3 -3 -3 -4 -4 -4 -4 -5 -5 -5 -5 -4 -4 -4 -4 -5 -5 -5 -4 -4 -4 -4 -4 -4 -4 -4 -4 -4 -4 -4 -4 -4 -4
-2 -2 -3 -3 -3 -3 -3 -3 -4 -4 -4 -3 -4 -4 -4 -4 -5 -5 -5 -5 -5 -5 -5 -5 -5 -5 -5 -5 -5 -5 -5 -5 -5 -5 -5 -5 -5 -5 -5 -5 -5 -5 -5 -5
-3 -3 -3 -3 -3 -3 -3 -4 -4 -4 -4 -4 -4 -4 -5 -5 -5 -5 -5 -5 -5 -5 -5 -5 -5 -5 -5 -5 -5 -5 -5 -5 -5 -5 -5 -5 -5 -5 -5 -5 -5 -5 -5 -5
-3 -2 -3 -3 -3 -3 -4 -4 -4 -4 -4 -4 -5 -5 -5 -5 -5 -5 -5 -5 -5 -5 -5 -6 -6 -6 -6 -6 -6 -5 -5 -5 -5 -5 -5 -5 -5 -5 -5 -5 -5 -5 -5 -5
-3 -3 -3 -3 -4 -4 -4 -4 -4 -4 -5 -5 -5 -5 -5 -5 -6 -6 -6 -6 -6 -6 -6 -6 -6 -6 -6 -6 -6 -6 -6 -6 -6 -6 -6 -6 -6 -6 -6 -6 -6 -6 -6 -6
-3 -3 -3 -4 -4 -4 -4 -5 -5 -5 -5 -5 -6 -6 -6 -6 -6 -6 -6 -6 -6 -6 -6 -6 -6 -6 -6 -6 -6 -6 -6 -6 -6 -6 -6 -6 -6 -6 -6 -6 -6 -6 -6 -6
-3 -4 -4 -4 -4 -5 -5 -5 -5 -5 -6 -6 -6 -6 -6 -6 -6 -6 -6 -6 -6 -7 -7 -6 -6 -6 -6 -6 -6 -6 -6 -6 -6 -6 -6 -6 -6 -6 -6 -6 -6 -6 -6 -6
-4 -4 -4 -5 -5 -5 -5 -6 -6 -6 -6 -6 -6 -6 -6 -6 -7 -7 -7 -7 -7 -7 -7 -7 -7 -7 -7 -7 -7 -7 -7 -7 -7 -7 -7 -7 -6 -6 -6 -6 -6 -6 -6 -6
-4 -5 -5 -5 -5 -5 -6 -6 -6 -6 -6 -7 -7 -7 -7 -7 -7 -7 -7 -7 -7 -7 -7 -7 -7 -7 -7 -7 -7 -7 -7 -7 -7 -7 -7 -7 -7 -7 -7 -7 -7 -6 -6 -6
-5 -5 -5 -5 -6 -6 -6 -6 -7 -7 -7 -7 -7 -7 -7 -7 -7 -7 -7 -7 -8 -8 -7 -7 -7 -7 -7 -7 -7 -7 -7 -7 -7 -7 -7 -7 -7 -7 -7 -7 -7 -6 -6 -6
-5 -5 -6 -6 -6 -6 -6 -7 -7 -7 -7 -7 -7 -7 -7 -7 -7 -7 -8 -8 -8 -8 -8 -8 -8 -8 -7 -7 -7 -7 -7 -7 -7 -7 -7 -7 -7 -7 -7 -7 -7 -7 -7 -7
-6 -6 -6 -6 -6 -7 -7 -7 -7 -7 -7 -7 -7 -7 -8 -8 -8 -8 -8 -8 -8 -8 -8 -8 -8 -8 -8 -7 -7 -7 -7 -7 -7 -7 -7 -7 -7 -7 -7 -7 -7 -7 -7 -7
-6 -6 -6 -7 -7 -7 -7 -7 -7 -7 -7 -7 -8 -8 -8 -8 -8 -8 -8 -8 -8 -8 -8 -8 -8 -8 -8 -8 -8 -7 -7 -7 -7 -7 -7 -7 -7 -7 -7 -7 -7 -7 -7 -7
Wind_Speed
6 6 4 5 6 4 6 7 7 8 9 11 8 8 7 6 5 5 5 4 2 2 2 3 3 3 3 3 3 3 3 2 2 1 0 0 1 1 1 2 2 2 2 2
4 3 4 6 7 8 8 7 9 10 11 9 7 5 5 6 5 4 5 4 3 2 3 3 3 4 4 4 3 3 3 3 3 2 1 1 1 1 1 1 1 2 2 3
4 5 4 6 7 7 5 6 6 9 9 6 5 6 5 6 5 4 4 4 3 3 2 3 3 3 3 3 3 3 3 3 3 2 2 1 1 1 1 1 1 1 1 2
2 4 4 6 1 4 6 8 7 7 6 5 6 6 4 4 4 4 2 2 3 3 2 2 2 3 2 3 3 3 3 3 3 3 2 2 1 1 1 1 1 1 0 1
1 3 8 7 2 3 4 7 6 8 9 7 5 4 4 3 2 2 2 2 2 2 1 2 3 3 2 3 3 3 4 4 3 2 2 1 1 1 1 1 1 1 0 0
2 2 6 5 1 1 1 6 4 4 7 6 2 3 5 4 3 3 3 2 2 2 2 2 3 2 3 3 3 3 3 3 3 2 1 1 1 1 1 1 0 1 1 0
4 6 8 5 1 2 2 6 4 3 5 3 3 5 4 3 3 2 2 2 2 2 2 3 3 2 3 3 3 3 3 3 3 2 1 1 1 1 1 1 1 1 1 1
4 5 8 3 4 5 6 3 3 3 4 4 5 5 4 2 2 2 2 2 2 2 3 3 3 2 2 3 3 3 3 3 3 2 2 1 1 1 1 1 1 1 1 1
8 8 4 5 6 5 3 4 4 4 4 4 4 4 3 2 2 2 2 2 1 1 2 3 3 2 1 3 3 2 3 3 3 3 2 1 1 1 1 0 1 0 0 1
6 9 7 7 7 7 5 6 6 5 4 3 4 4 4 3 2 2 2 1 1 1 2 3 3 3 2 2 2 2 2 3 2 2 2 1 1 0 0 1 1 1 1 1
7 8 7 7 8 8 6 6 5 5 3 4 4 4 4 3 3 2 2 1 1 1 2 3 3 3 3 3 2 2 2 2 2 1 1 1 1 0 1 2 2 2 2 2
9 7 5 6 5 5 6 7 6 5 4 4 4 5 4 3 3 2 2 1 1 1 2 3 3 3 3 3 1 1 2 2 1 1 1 0 1 1 2 1 1 1 2 1
8 5 6 7 6 5 5 6 5 5 5 5 3 3 3 2 2 1 1 1 2 2 2 2 2 3 3 3 2 1 2 2 1 1 1 0 0 0 1 2 3 2 1 1
7 4 6 6 7 6 4 4 3 3 3 3 2 1 1 1 1 1 2 2 2 2 2 2 2 4 3 2 2 2 2 2 2 1 1 1 1 1 1 0 1 2 2 2
8 8 7 5 5 4 3 2 1 2 3 2 1 1 1 2 2 2 2 2 1 1 2 1 2 4 3 2 2 2 2 2 1 1 1 1 1 1 1 1 0 0 1 2
5 4 4 5 6 5 3 3 3 4 3 2 2 2 2 2 2 2 2 1 1 2 2 2 3 4 3 2 2 2 2 3 2 1 1 0 1 1 1 1 1 0 0 1
4 5 5 6 6 6 5 5 4 4 3 3 3 2 1 1 1 1 1 1 2 2 2 2 3 3 3 2 2 2 1 1 2 1 0 1 1 1 1 1 1 1 1 1
7 7 7 6 6 5 5 4 3 3 3 3 2 1 2 2 2 3 2 1 1 2 2 2 3 3 2 2 2 1 1 1 1 1 1 1 1 1 1 1 1 1 1 1
5 5 5 5 5 4 4 4 3 3 2 2 2 3 3 3 3 2 2 1 2 3 3 3 4 3 2 3 2 1 1 1 0 0 1 1 1 1 1 1 1 1 0 0
3 3 3 3 3 3 3 2 2 2 2 2 2 2 2 3 2 2 2 2 3 3 3 3 3 2 2 3 2 1 1 1 1 0 0 1 1 1 1 1 1 1 1 0
3 2 2 2 1 1 2 2 2 1 1 2 2 3 3 3 2 2 2 3 3 3 3 4 2 2 2 2 2 0 1 1 1 1 1 1 1 1 1 1 1 1 1 1
2 2 2 1 1 1 0 1 1 1 1 2 2 2 2 2 2 2 3 3 3 4 3 2 2 3 2 2 1 1 1 1 1 1 1 1 1 1 1 1 1 1 1 1
2 1 1 1 1 0 0 0 1 1 2 2 3 3 3 3 2 2 3 2 2 4 3 2 3 4 2 1 1 1 1 1 1 1 1 1 1 2 2 2 1 1 1 1
1 1 0 0 1 1 1 1 1 1 2 2 3 3 3 2 2 3 3 3 4 4 2 3 4 3 2 0 0 1 1 1 1 1 1 1 1 1 1 1 1 1 1 1
1 1 1 2 2 2 2 1 0 1 1 2 2 2 2 2 3 3 2 3 4 3 2 3 4 3 1 0 0 1 1 1 1 1 1 1 1 1 1 1 1 1 1 1
1 1 2 2 2 2 1 1 1 1 1 2 2 2 2 2 2 2 2 2 3 3 2 2 2 2 1 1 1 1 1 1 1 0 0 0 1 1 1 1 0 1 1 1
0 1 1 1 1 2 2 2 2 2 2 2 2 2 2 2 1 2 2 1 1 1 1 1 1 1 1 1 1 1 0 0 0 0 0 1 1 1 1 1 0 0 0 0
Wind_Direction
261 273 258 254 255 228 214 220 228 256 261 277 291 295 301 305 311 325 329 327 335 347 354 360 7 7 9 5 6 9 12 8 347 330 46 101 135 159 167 179 185 172 167 171
291 293 273 271 262 243 238 241 251 268 273 277 290 303 313 314 310 312 315 328 342 357 2 358 358 356 1 6 5 15 13 1 359 13 42 65 93 118 130 142 156 156 166 173
285 317 331 279 247 220 230 231 221 241 256 284 298 301 296 297 294 281 291 319 336 344 350 348 343 350 355 357 4 18 16 9 8 9 15 29 80 95 105 121 139 153 165 172
304 10 259 252 194 209 236 251 230 245 268 277 277 290 291 287 284 283 288 307 325 338 348 350 352 352 357 11 17 17 16 13 9 11 14 27 62 74 78 101 123 133 143 184
148 273 277 288 251 193 218 270 237 244 268 286 307 319 311 308 292 263 293 308 310 318 335 351 351 351 3 12 16 15 10 3 357 3 8 20 53 54 47 69 96 117 142 144
150 222 252 263 261 226 131 286 265 236 258 274 330 314 294 319 320 318 326 340 345 355 8 5 353 5 21 7 10 359 348 342 345 354 357 359 21 54 47 60 71 85 64 33
201 235 263 259 238 129 168 265 291 242 248 245 227 240 275 303 312 321 332 345 360 6 1 345 354 18 14 360 349 340 344 349 354 356 352 14 49 68 76 69 67 60 51 5
179 219 257 200 142 190 233 287 280 262 251 243 251 270 291 305 314 323 337 354 4 12 351 346 1 24 6 343 334 346 353 355 356 359 5 35 73 64 72 99 87 58 45 355
201 222 259 185 212 240 255 264 265 259 262 254 261 270 283 291 292 298 302 322 344 5 349 345 352 12 354 326 336 352 2 356 356 5 27 44 89 98 72 103 138 190 209 274
252 262 256 250 257 262 252 254 263 259 258 243 247 260 267 274 280 286 293 300 323 8 347 334 341 349 329 325 339 355 356 349 351 8 22 30 24 100 187 205 214 225 236 268
254 271 288 267 247 250 255 258 264 273 260 241 241 254 251 253 262 263 285 299 324 311 305 310 330 337 332 335 357 0 345 340 347 359 5 15 6 316 264 247 235 225 236 242
237 236 224 261 266 242 239 250 250 252 268 263 235 242 243 241 245 251 275 295 309 300 295 306 324 325 325 329 339 348 337 333 335 343 341 0 16 13 8 348 324 293 267 274
239 251 243 264 274 255 243 252 251 243 245 259 251 236 230 228 235 237 265 271 271 278 286 298 313 314 315 320 330 322 307 303 298 283 261 257 245 106 12 11 18 18 357 332
245 248 263 257 260 263 259 258 259 260 258 254 245 222 211 218 240 247 257 264 268 279 290 295 306 305 307 313 314 311 300 290 276 255 244 237 225 205 199 240 355 353 354 360
247 237 244 263 271 275 272 259 255 274 282 284 262 212 201 210 234 255 267 277 286 293 300 305 304 303 311 307 298 291 288 276 260 247 245 227 201 173 164 154 143 344 348 355
259 254 249 256 260 266 264 250 244 258 266 267 262 247 229 219 231 254 260 229 214 278 290 297 293 297 306 297 293 289 279 276 277 255 237 204 165 162 163 160 165 193 296 322
233 249 247 257 257 257 251 244 237 242 248 248 246 247 233 220 244 266 271 253 242 261 270 271 283 299 303 296 286 277 271 270 277 298 194 197 178 183 186 183 186 224 276 293
237 241 238 239 243 248 256 252 239 239 241 239 233 214 215 223 245 261 272 292 303 302 289 272 284 299 299 297 286 271 264 260 246 205 188 186 180 178 168 172 184 202 287 308
251 247 247 246 240 232 241 243 241 236 234 216 204 217 225 236 245 254 268 270 267 281 291 292 299 306 294 289 296 251 248 251 244 193 176 191 177 150 155 165 178 199 244 296
275 261 249 248 239 221 229 235 219 228 231 205 200 221 248 257 252 250 254 252 249 255 275 289 296 288 280 279 285 233 221 230 218 199 169 160 166 168 170 177 184 198 215 205
288 274 246 230 228 210 195 183 182 224 244 209 205 227 245 259 251 236 241 272 277 272 281 288 294 279 275 280 279 210 216 214 202 193 187 185 180 181 181 180 187 203 203 199
286 272 243 196 163 190 195 170 179 206 246 241 236 231 237 255 260 260 251 248 271 292 305 287 281 280 283 286 234 204 207 205 202 195 193 188 185 191 198 196 196 205 205 198
293 277 240 191 181 186 54 154 199 213 237 239 234 231 235 244 242 243 273 275 279 290 301 279 286 293 299 289 205 203 203 209 213 215 211 205 202 200 199 200 202 201 200 203
283 266 228 130 123 132 269 284 268 253 257 261 249 241 236 249 265 250 254 276 286 296 295 287 296 300 310 23 185 198 204 211 218 217 212 203 202 198 201 199 201 205 196 190
227 213 194 170 185 219 234 238 318 290 285 290 282 270 253 233 239 263 274 269 279 294 294 292 295 306 341 348 216 218 224 226 214 193 194 204 212 206 205 202 198 202 196 197
223 216 218 219 221 220 212 202 229 252 256 287 295 285 278 272 261 261 267 271 280 297 301 294 302 305 314 276 249 241 241 263 291 327 148 176 191 191 191 190 206 220 212 212
210 214 211 243 246 220 208 209 224 240 241 250 267 270 273 277 272 271 274 283 289 292 292 294 299 295 284 268 254 255 256 240 201 181 163 172 187 194 190 185 205 224 225 218
Height
1503 1499 1500 1498 1495 1495 1495 1492 1491 1481 1478 1469 1467 1466 1463 1460 1458 1456 1455 1453 1453 1452 1452 1452 1452 1453 1453 1453 1453 1453 1454 1455 1455 1456 1456 1458 1459 1460 1461 1463 1464 1465 1466 1467
1502 1497 1497 1495 1491 1491 1490 1489 1486 1480 1474 1467 1466 1464 1462 1459 1457 1455 1455 1453 1453 1452 1452 1452 1452 1452 1452 1452 1452 1452 1452 1452 1452 1453 1454 1455 1456 1457 1458 1459 1461 1462 1462 1463
1502 1501 1494 1491 1485 1486 1485 1482 1481 1478 1471 1467 1465 1463 1461 1459 1457 1455 1454 1453 1453 1452 1451 1451 1451 1451 1451 1450 1450 1450 1450 1450 1451 1451 1452 1452 1453 1454 1455 1456 1458 1459 1460 1460
1508 1504 1494 1480 1479 1479 1479 1476 1474 1471 1467 1465 1464 1462 1460 1458 1456 1454 1454 1453 1453 1452 1451 1451 1451 1451 1450 1450 1449 1449 1449 1449 1449 1449 1449 1450 1451 1452 1453 1454 1455 1456 1456 1457
1512 1508 1495 1481 1478 1479 1478 1474 1469 1468 1465 1463 1462 1460 1458 1457 1455 1454 1454 1453 1452 1452 1451 1450 1450 1449 1449 1448 1448 1448 1447 1447 1447 1448 1447 1448 1449 1449 1450 1451 1452 1453 1453 1454
1512 1504 1491 1476 1476 1474 1477 1473 1464 1464 1462 1462 1461 1462 1459 1456 1454 1453 1452 1452 1451 1451 1450 1449 1449 1448 1447 1447 1447 1447 1447 1446 1446 1446 1446 1446 1447 1447 1448 1449 1450 1450 1451 1452
1509 1505 1489 1476 1475 1475 1478 1469 1463 1461 1460 1460 1460 1460 1458 1455 1454 1452 1452 1451 1450 1450 1449 1448 1448 1447 1447 1446 1446 1446 1446 1445 1445 1445 1445 1445 1445 1445 1446 1447 1447 1448 1448 1449
1504 1501 1485 1472 1473 1474 1468 1463 1461 1460 1459 1458 1457 1456 1455 1454 1453 1452 1450 1450 1449 1448 1448 1448 1447 1446 1445 1445 1445 1445 1444 1444 1444 1444 1444 1444 1444 1444 1445 1445 1445 1446 1447 1447
1487 1478 1469 1467 1465 1464 1463 1462 1460 1459 1458 1457 1455 1453 1453 1452 1451 1450 1450 1449 1448 1447 1447 1447 1446 1446 1444 1444 1444 1444 1443 1443 1443 1442 1443 1443 1443 1443 1443 1444 1444 1444 1445 1445
1480 1469 1465 1464 1462 1461 1460 1459 1458 1457 1456 1454 1453 1452 1451 1450 1449 1449 1448 1447 1447 1446 1445 1445 1445 1444 1443 1443 1443 1442 1442 1441 1441 1441 1441 1442 1442 1442 1442 1442 1442 1442 1443 1443
1474 1465 1461 1458 1457 1457 1456 1456 1455 1454 1453 1452 1450 1449 1448 1447 1447 1447 1447 1446 1445 1445 1444 1444 1444 1443 1442 1442 1441 1441 1440 1440 1440 1440 1440 1440 1440 1440 1440 1440 1441 1441 1441 1441
1463 1458 1458 1455 1453 1453 1453 1452 1451 1450 1449 1449 1448 1447 1446 1445 1445 1445 1445 1444 1444 1443 1443 1443 1442 1441 1441 1441 1440 1439 1439 1438 1438 1438 1438 1438 1438 1438 1439 1439 1439 1439 1439 1440
1454 1453 1453 1451 1450 1450 1449 1448 1448 1447 1446 1445 1445 1444 1443 1443 1443 1443 1443 1442 1442 1441 1441 1441 1441 1440 1440 1439 1439 1438 1437 1437 1437 1437 1437 1437 1437 1436 1436 1437 1437 1438 1438 1438
1450 1450 1449 1447 1447 1446 1445 1445 1445 1444 1443 1442 1442 1441 1441 1440 1440 1440 1440 1440 1440 1440 1440 1439 1439 1438 1438 1437 1437 1436 1435 1435 1435 1435 1435 1435 1435 1435 1435 1435 1435 1435 1436 1436
1444 1444 1444 1444 1443 1442 1442 1442 1441 1440 1440 1439 1439 1439 1438 1438 1438 1438 1439 1439 1438 1438 1438 1437 1437 1436 1436 1435 1435 1434 1433 1433 1433 1433 1433 1433 1433 1433 1433 1433 1434 1434 1434 1435
1440 1440 1440 1440 1439 1439 1439 1438 1438 1438 1437 1437 1437 1436 1436 1436 1436 1436 1437 1437 1436 1435 1435 1435 1435 1434 1434 1433 1432 1432 1431 1432 1431 1431 1431 1431 1431 1431 1431 1432 1432 1433 1433 1433
1436 1436 1436 1435 1435 1435 1435 1435 1435 1435 1435 1435 1434 1434 1434 1434 1434 1434 1434 1435 1434 1434 1434 1433 1432 1432 1431 1431 1430 1430 1429 1430 1430 1429 1429 1429 1429 1429 1430 1430 1431 1431 1432 1432
1433 1433 1433 1433 1432 1432 1432 1432 1432 1432 1432 1432 1432 1432 1432 1432 1432 1432 1432 1432 1432 1431 1431 1431 1430 1430 1429 1428 1428 1428 1428 1428 1428 1428 1428 1428 1428 1428 1428 1429 1429 1430 1430 1431
1430 1430 1430 1429 1429 1429 1429 1429 1430 1430 1429 1429 1430 1430 1430 1430 1430 1430 1430 1429 1429 1428 1428 1428 1428 1427 1427 1426 1426 1426 1426 1426 1426 1426 1426 1426 1426 1427 1427 1428 1428 1429 1429 1430
1427 1427 1427 1426 1426 1427 1427 1427 1427 1427 1427 1427 1427 1427 1428 1428 1428 1428 1428 1427 1427 1426 1426 1426 1425 1425 1424 1424 1424 1424 1424 1424 1424 1424 1424 1425 1425 1425 1426 1427 1427 1428 1428 1429
1424 1424 1424 1424 1424 1424 1424 1424 1424 1425 1425 1425 1425 1425 1425 1426 1426 1426 1425 1424 1425 1424 1424 1423 1423 1423 1422 1422 1422 1422 1422 1422 1422 1423 1423 1423 1424 1424 1425 1425 1426 1427 1427 1428
1422 1422 1421 1421 1421 1422 1422 1422 1423 1423 1423 1423 1424 1424 1424 1424 1424 1423 1423 1423 1422 1422 1421 1421 1421 1421 1421 1421 1420 1420 1420 1420 1421 1421 1421 1422 1422 1423 1424 1424 1425 1425 1426 1426
1421 1420 1420 1420 1420 1420 1421 1421 1421 1422 1422 1422 1422 1422 1422 1421 1421 1421 1420 1420 1420 1420 1419 1419 1419 1419 1419 1419 1418 1418 1419 1419 1419 1420 1420 1421 1421 1422 1422 1423 1423 1424 1425 1425
1419 1419 1419 1419 1419 1419 1419 1420 1420 1420 1421 1420 1420 1420 1420 1419 1419 1419 1419 1418 1418 1417 1417 1417 1417 1417 1417 1417 1417 1417 1417 1418 1418 1418 1419 1419 1420 1421 1421 1422 1422 1423 1424 1424
1418 1418 1418 1418 1418 1418 1418 1418 1419 1419 1419 1419 1419 1418 1418 1418 1417 1417 1416 1416 1416 1416 1415 1415 1415 1416 1415 1415 1416 1416 1416 1416 1417 1417 1417 1418 1419 1419 1420 1421 1421 1422 1422 1423
1416 1416 1416 1416 1416 1416 1416 1417 1417 1417 1417 1417 1416 1416 1416 1416 1415 1415 1414 1414 1414 1414 1414 1414 1414 1414 1414 1414 1414 1415 1415 1415 1416 1416 1416 1417 1418 1418 1419 1419 1420 1421 1421 1422
1413 1413 1413 1413 1414 1414 1414 1415 1415 1415 1415 1414 1414 1414 1414 1413 1413 1413 1413 1412 1412 1412 1412 1412 1412 1413 1413 1413 1413 1414 1414 1414 1415 1415 1416 1416 1417 1418 1418 1419 1419 1420 1420 1421